Flag for Germany Weather past 2 weeks in Neumarkt in der Oberpfalz, Bavaria, Germany

Now
66 °F

Clear.


Feels Like: 66 °F
Forecast: 68 / 92 °F
Wind: No wind

Location: Hohenfels

Current Time: Jul 4, 2015 at 2:10:07 AM

Latest Report: Jul 4, 2015 at 12:58 AM


Visibility: N/A

Pressure: 30.21 "Hg

Humidity: 83%

Dew point: 61 °F

Location of Neumarkt in der OberpfalzLocation

Historic Weather in Neumarkt in der Oberpfalz — Graph

°F

Neumarkt in der Oberpfalz temperature yesterday

Maximum temperature yesterday: 90 °F (at 4:58 PM)
Minimum temperature yesterday: 59 °F (at 5:58 AM)
Average temperature yesterday: 76 °F

Past Weeks' High & Low Weather Summary

 TemperatureHumidityPressure
High90 °F (Jul 3, 4:58 PM)100% (Jun 22, 8:58 PM)30.26 "Hg (Jun 22, 8:58 PM)
Low41 °F (Jun 25, 4:58 AM)28% (Jun 30, 6:58 PM)29.72 "Hg (Jun 23, 12:58 AM)
Average62 °F71%30.10 "Hg
* Reported Jun 19 12:58 AM — Jul 4 12:58 AM, Neumarkt in der Oberpfalz, Weather by CustomWeather, © 2015

Note: Actual official high and low records may vary slightly from our data, if they occured in-between our weather recording intervals... More about our weather records

Advertising

Neumarkt in der Oberpfalz weather history for previous 24 hours

 ConditionsComfort  
Time TempWeatherWind HumidityBarometerVisibility
12:58 AM
Sat, Jul 4
66 °FClear.No wind83%30.21 "HgN/A
11:58 PM
Fri, Jul 3
68 °FClear.3 mph78%30.22 "HgN/A
10:58 PM70 °FClear.3 mph78%30.21 "HgN/A
9:58 PM72 °FSunny.3 mph73%30.22 "Hg4 mi
8:58 PM77 °FSunny.2 mph65%30.21 "HgN/A
7:58 PM86 °FSunny.No wind43%30.20 "HgN/A
6:58 PM88 °FSunny.2 mph38%30.19 "HgN/A
5:58 PM90 °FSunny.3 mph33%30.20 "HgN/A
4:58 PM90 °FSunny.3 mph31%30.21 "HgN/A
3:58 PM88 °FSunny.2 mph33%30.23 "HgN/A
2:58 PM88 °FSunny.7 mph35%30.24 "HgN/A
1:58 PM86 °FSunny.7 mph40%30.25 "HgN/A
12:58 PM86 °FSunny.7 mph43%30.25 "HgN/A
11:58 AM84 °FSunny.6 mph43%30.25 "HgN/A
10:58 AM82 °FSunny.6 mph45%30.25 "HgN/A
9:58 AM79 °FSunny.5 mph51%30.25 "HgN/A
8:58 AM75 °FSunny.8 mph57%30.24 "HgN/A
7:58 AM72 °FSunny.5 mph73%30.23 "HgN/A
6:58 AM64 °FSunny.No wind83%30.23 "HgN/A
5:58 AM59 °FClear.No wind94%30.24 "HgN/A
4:58 AM61 °FClear.No wind94%30.22 "HgN/A
3:58 AM61 °FClear.1 mph94%30.21 "HgN/A
2:58 AM63 °FClear.No wind88%30.21 "HgN/A
Weather by CustomWeather, © 2015

See weather overviewHow to use our weather pages